CAPE
60 35 2 0 0 6 31 60 113 110 98 66 60 100 46 21 32 1 3 46 227 232 403 589 610 555 504 433 396 372 348 328 290 253 206 188 167 156 153 169 255 453 781 635 849 752 957 945 834
22 0 0 0 22 36 16 74 76 113 147 166 134 94 36 19 1 0 0 20 269 376 505 532 570 499 401 395 428 403 365 319 288 225 162 116 92 91 94 110 135 253 378 534 741 778 902 858 804
14 0 0 0 0 37 51 44 96 141 179 82 128 167 177 47 8 0 2 133 404 283 290 321 579 637 603 504 342 244 235 248 234 200 164 135 92 68 41 22 29 59 138 451 535 849 739 752 702
0 0 0 0 0 40 73 96 85 115 120 86 75 91 149 309 167 117 65 343 311 302 423 524 545 476 502 469 434 405 342 276 226 155 95 78 64 50 24 0 0 0 0 1 88 212 311 365 359
0 0 0 0 0 2 31 18 116 136 131 126 131 86 185 178 268 251 257 202 147 189 218 311 331 282 215 157 65 27 10 0 0 0 0 0 0 30 0 0 0 0 0 0 0 0 0 17 23
0 0 0 0 0 1 6 110 97 78 111 129 139 123 262 205 170 197 151 11 3 3 20 40 65 48 26 2 0 0 0 0 0 0 0 0 0 4 20 36 24 30 25 29 8 0 0 0 0
0 0 0 0 0 14 49 135 81 99 120 96 143 190 229 212 104 61 17 5 10 2 0 0 0 0 0 0 0 0 0 0 0 0 0 0 0 0 0 10 15 20 22 35 43 133 69 24 0
0 0 2 0 29 113 247 344 232 188 165 210 207 118 256 231 71 69 52 17 5 0 0 0 0 0 0 0 0 0 0 0 0 0 0 0 0 0 0 0 3 7 14 13 18 78 92 244 86
0 0 2 9 91 128 379 274 125 154 150 117 161 170 190 109 9 0 0 0 0 0 0 0 0 0 0 0 0 0 0 0 0 0 0 0 0 0 0 0 0 0 0 2 20 34 24 35 60
35 46 21 12 28 266 340 231 169 187 161 163 125 125 15 0 0 0 0 0 0 0 0 0 0 0 0 0 0 0 0 0 0 0 0 0 0 0 0 0 0 0 0 0 0 0 6 17 1
139 129 61 65 186 303 196 177 93 125 112 155 91 40 43 0 0 0 0 0 0 0 0 0 0 0 0 0 0 0 0 0 0 0 0 0 0 0 0 0 0 0 0 0 0 0 0 0 0
87 184 109 84 331 219 98 72 88 67 73 86 0 0 0 0 0 0 0 0 0 0 0 0 0 0 0 0 0 0 0 0 0 0 0 0 0 0 0 0 0 0 0 0 0 0 0 0 0
21 251 308 290 254 189 74 98 103 42 12 0 0 0 0 0 0 0 0 0 0 0 0 0 0 0 0 0 0 0 0 0 0 0 0 0 0 0 0 0 0 0 0 0 0 0 0 0 0
38 329 267 71 127 59 48 34 40 9 0 0 0 0 0 0 0 0 0 0 0 0 0 0 0 0 0 0 0 0 0 0 0 0 0 0 0 0 0 0 0 0 0 0 0 0 0 0 0
146 231 109 142 117 20 53 59 41 2 0 0 0 0 0 0 0 0 0 0 0 0 0 0 0 0 0 0 0 0 0 0 0 0 0 0 0 0 0 0 0 0 0 0 0 0 0 0 0
22 2 8 0 213 69 122 54 28 5 0 0 0 0 0 0 0 0 0 0 0 0 0 0 0 0 0 0 0 0 0 0 0 0 0 0 0 0 0 0 0 0 0 0 0 0 0 0 0
1 15 1 4 9 119 86 42 21 1 0 0 0 0 0 0 0 2 3 0 0 0 0 0 0 0 0 0 0 0 0 0 0 0 0 0 0 0 0 0 0 0 0 0 0 0 0 0 0
22 24 3 15 0 1 10 9 6 11 5 10 0 0 0 0 0 29 1 0 0 0 0 0 0 0 0 0 0 0 0 0 0 0 0 0 0 0 0 0 0 0 0 0 0 0 0 0 0
12 8 7 0 0 0 4 17 76 108 17 69 7 27 0 0 27 5 0 0 0 0 0 0 0 0 0 0 0 0 0 0 0 0 0 0 0 0 0 0 0 0 0 0 0 0 0 0 0
19 31 1 2 2 4 16 4 2 1 0 28 3 0 3 16 55 0 0 0 0 0 0 0 0 0 0 0 0 0 0 0 0 0 0 0 0 0 0 0 0 0 0 0 0 0 0 0 0
0 0 1 26 10 0 0 0 2 1 0 2 0 0 0 7 9 0 0 0 0 0 0 0 0 0 0 0 0 0 0 0 0 0 0 0 0 0 0 0 0 0 0 0 0 0 0 0 0
1 0 14 15 2 31 0 0 1 3 0 0 0 0 1 29 29 1 1 0 0 0 0 0 0 0 0 0 0 0 0 0 0 0 0 0 0 0 0 0 0 0 0 0 0 0 0 0 0
0 0 27 27 1 0 0 0 0 3 0 0 7 0 0 2 22 13 13 6 3 0 3 0 0 0 0 0 0 0 0 0 0 0 0 0 0 0 0 0 0 0 0 0 0 0 0 0 0
0 3 0 0 0 0 0 0 0 0 12 20 37 18 6 3 73 83 60 10 11 2 4 0 0 0 0 0 0 0 0 0 0 0 0 0 0 0 0 0 0 0 0 2 6 1 9 1 0
0 0 0 0 0 0 0 0 0 0 9 19 67 107 34 8 58 74 39 16 1 4 5 0 0 0 0 0 0 0 1 0 0 0 0 0 0 0 0 0 0 0 0 8 6 4 13 0 0
0 0 0 0 0 0 0 0 0 0 3 0 48 91 58 30 32 35 31 8 2 2 0 0 0 0 0 0 1 3 0 0 0 0 0 0 0 0 0 0 0 0 0 1 4 0 0 8 10
0 0 0 0 0 0 0 0 0 0 2 35 31 29 34 27 14 37 31 0 2 3 0 0 0 0 0 0 1 0 0 0 0 0 0 0 0 0 0 0 0 0 0 0 0 0 6 4 8
0 0 0 0 0 0 0 0 0 0 0 26 40 26 18 24 58 36 7 5 2 0 0 0 0 0 0 0 7 6 0 0 0 0 0 0 0 0 0 0 0 0 7 1 0 1 1 6 0
0 0 0 0 0 0 0 0 0 0 0 0 25 35 42 64 64 48 6 6 2 0 0 0 0 0 0 0 3 9 0 0 0 0 1 2 0 0 0 0 0 0 5 9 13 4 11 6 1
0 0 0 0 0 0 0 0 0 0 0 0 0 0 12 53 44 55 7 10 3 0 0 0 0 0 0 0 6 27 9 1 3 4 3 1 3 1 0 0 0 0 2 3 21 26 18 9 0
CIN
-419 -383 -198 -0 -0 -79 -46 -28 -75 -49 -73 -110 -79 -61 -92 -130 -84 -46 -159 -80 -5 -11 -2 -0 -1 -6 -13 -26 -35 -34 -36 -45 -52 -48 -58 -57 -51 -49 -59 -55 -31 -10 -0 -1 -0 -0 -0 -0 -0
-389 -0 -0 -0 -120 -68 -30 -37 -47 -82 -108 -82 -97 -85 -137 -130 -63 -0 -0 -79 -0 -4 -4 -2 -3 -1 -8 -7 -0 -1 -2 -5 -10 -23 -38 -49 -69 -87 -92 -87 -67 -26 -14 -2 -1 -1 -1 -0 -0
-410 -0 -0 -0 -0 -75 -37 -20 -109 -103 -55 -73 -90 -79 -71 -90 -109 -0 -30 -41 -2 -10 -13 -10 -3 -0 -0 -0 -1 -4 -2 -0 -1 -5 -11 -21 -50 -68 -107 -132 -125 -91 -50 -3 -1 -0 -0 -0 -0
-0 -0 -0 -38 -0 -94 -39 -12 -79 -80 -98 -128 -123 -94 -36 -11 -53 -43 -22 -1 -7 -9 -4 -1 -1 -1 -0 -0 -0 -0 -0 -0 -6 -6 -23 -37 -49 -61 -70 -0 -0 -0 -0 -2 -58 -32 -16 -9 -8
-0 -0 -0 -0 -5 -45 -112 -148 -87 -60 -123 -141 -131 -87 -30 -11 -49 -39 -23 -12 -27 -31 -23 -1 -0 -0 -0 -4 -29 -39 -53 -0 -0 -0 -0 -0 -0 -28 -0 -0 -0 -0 -0 -0 -0 -0 -0 -50 -46
-0 -0 -0 -0 -0 -22 -145 -84 -100 -89 -120 -146 -124 -93 -14 -9 -33 -28 -29 -68 -60 -151 -115 -97 -55 -56 -73 -51 -0 -0 -0 -0 -0 -0 -0 -0 -0 -0 -10 -12 -3 -10 -15 -17 -16 -0 -0 -0 -0
-0 -0 -0 -0 -0 -112 -80 -70 -93 -83 -90 -122 -108 -73 -22 -2 -20 -39 -86 -128 -120 -153 -0 -0 -0 -0 -0 -0 -0 -0 -0 -0 -0 -0 -0 -0 -0 -0 -0 -20 -1 -1 -2 -5 -10 -10 -31 -59 -0
-0 -0 -51 -0 -85 -53 -67 -81 -105 -119 -127 -93 -102 -69 -13 -1 -20 -26 -52 -92 -156 -0 -0 -0 -0 -0 -0 -0 -0 -0 -0 -0 -0 -0 -0 -0 -0 -0 -0 -0 -18 -7 -7 -8 -2 -0 -1 -1 -29
-0 -0 -19 -65 -77 -84 -104 -105 -170 -148 -144 -162 -133 -93 -51 -59 -93 -0 -0 -0 -0 -0 -0 -0 -0 -0 -0 -0 -0 -0 -0 -0 -0 -0 -0 -0 -0 -0 -0 -0 -0 -0 -0 -28 -16 -9 -13 -10 -15
-132 -127 -159 -186 -173 -116 -146 -152 -170 -130 -137 -147 -165 -97 -98 -0 -0 -0 -0 -0 -0 -0 -0 -0 -0 -0 -0 -0 -0 -0 -0 -0 -0 -0 -0 -0 -0 -0 -0 -0 -0 -0 -0 -0 -0 -0 -13 -5 -27
-154 -121 -196 -116 -165 -134 -179 -211 -248 -175 -144 -114 -205 -291 -215 -0 -0 -0 -0 -0 -0 -0 -0 -0 -0 -0 -0 -0 -0 -0 -0 -0 -0 -0 -0 -0 -0 -0 -0 -0 -0 -0 -0 -0 -0 -0 -0 -0 -4
-93 -212 -176 -140 -169 -148 -189 -293 -273 -276 -237 -185 -0 -0 -0 -0 -0 -0 -0 -0 -0 -0 -0 -0 -0 -0 -0 -0 -0 -0 -0 -0 -0 -0 -0 -0 -0 -0 -0 -0 -0 -0 -0 -0 -0 -0 -0 -0 -0
-161 -168 -190 -177 -181 -226 -277 -243 -259 -298 -339 -0 -0 -0 -0 -0 -0 -0 -0 -0 -0 -0 -0 -0 -0 -0 -0 -0 -0 -0 -0 -0 -0 -0 -0 -0 -0 -0 -0 -0 -0 -0 -0 -0 -0 -0 -0 -0 -0
-245 -178 -192 -231 -231 -300 -247 -276 -271 -261 -0 -0 -0 -0 -0 -0 -0 -0 -0 -0 -0 -0 -0 -0 -0 -0 -0 -0 -0 -0 -0 -0 -0 -0 -0 -0 -0 -0 -0 -0 -0 -0 -0 -0 -0 -0 -0 -0 -0
-224 -152 -210 -181 -207 -243 -174 -209 -214 -144 -0 -0 -0 -0 -0 -0 -0 -0 -0 -0 -0 -0 -0 -0 -0 -0 -0 -0 -0 -0 -0 -0 -0 -0 -0 -0 -0 -0 -0 -0 -0 -0 -0 -0 -0 -0 -0 -3 -0
-150 -50 -137 -0 -141 -213 -165 -146 -196 -166 -0 -0 -0 -0 -0 -0 -0 -0 -0 -0 -0 -0 -0 -0 -0 -0 -0 -0 -0 -0 -0 -0 -0 -0 -0 -0 -0 -0 -0 -0 -0 -0 -0 -0 -0 -0 -0 -0 -0
-6 -28 -62 -141 -285 -184 -158 -137 -141 -4 -0 -0 -0 -0 -0 -0 -0 -62 -20 -0 -0 -0 -0 -0 -0 -0 -0 -0 -0 -0 -0 -0 -0 -0 -0 -0 -0 -0 -0 -0 -0 -0 -0 -0 -0 -0 -0 -0 -0
-29 -36 -120 -128 -0 -55 -161 -158 -86 -78 -3 -2 -0 -0 -0 -0 -0 -25 -53 -0 -0 -0 -0 -0 -0 -0 -0 -0 -0 -0 -0 -0 -0 -0 -0 -0 -0 -0 -0 -0 -0 -0 -0 -0 -0 -0 -0 -0 -0
-62 -79 -105 -0 -0 -0 -227 -157 -83 -66 -110 -20 -0 -21 -0 -0 -68 -53 -0 -0 -0 -0 -0 -0 -0 -0 -0 -0 -0 -0 -0 -0 -0 -0 -0 -0 -0 -0 -0 -0 -0 -0 -0 -0 -0 -0 -0 -0 -0
-56 -77 -81 -60 -260 -211 -167 -0 -2 -0 -0 -66 -2 -15 -41 -34 -35 -0 -0 -0 -0 -0 -0 -0 -0 -0 -0 -0 -0 -0 -0 -0 -0 -0 -0 -0 -0 -0 -0 -0 -0 -0 -0 -0 -0 -0 -0 -0 -0
-0 -0 -24 -136 -117 -0 -0 -0 -4 -0 -17 -0 -0 -0 -0 -61 -15 -16 -0 -0 -0 -0 -0 -0 -0 -0 -0 -0 -0 -0 -0 -0 -0 -0 -0 -0 -0 -0 -0 -0 -0 -0 -0 -0 -0 -0 -0 -0 -0
-7 -0 -157 -203 -116 -77 -0 -0 -3 -0 -0 -0 -0 -0 -28 -21 -42 -19 -21 -0 -0 -0 -0 -0 -0 -0 -0 -0 -0 -0 -0 -0 -0 -0 -0 -0 -0 -0 -0 -0 -0 -0 -0 -0 -0 -0 -0 -0 -0
-0 -0 -169 -178 -8 -0 -0 -0 -0 -10 -0 -0 -30 -0 -0 -79 -41 -45 -82 -98 -87 -0 -132 -11 -0 -0 -0 -0 -0 -0 -0 -0 -0 -0 -0 -0 -0 -0 -0 -0 -0 -0 -0 -0 -0 -0 -0 -0 -0
-0 -139 -0 -0 -0 -0 -0 -0 -0 -0 -18 -42 -37 -59 -87 -110 -76 -34 -54 -78 -86 -83 -162 -113 -0 -0 -0 -0 -0 -0 -0 -0 -0 -0 -0 -0 -0 -0 -0 -0 -0 -0 -0 -69 -58 -61 -38 -24 -0
-0 -0 -0 -0 -0 -0 -0 -0 -0 -0 -52 -50 -36 -49 -67 -82 -49 -60 -60 -112 -97 -136 -157 -0 -0 -0 -0 -0 -0 -18 -48 -0 -0 -0 -0 -0 -0 -0 -0 -0 -0 -0 -4 -64 -67 -45 -38 -33 -0
-0 -0 -0 -0 -0 -0 -0 -0 -0 -0 -30 -17 -50 -48 -50 -58 -65 -87 -72 -109 -138 -142 -0 -0 -0 -0 -0 -0 -16 -46 -0 -0 -0 -0 -0 -0 -0 -0 -0 -0 -0 -0 -0 -67 -69 -0 -10 -44 -30
-0 -0 -0 -0 -0 -0 -0 -0 -0 -0 -32 -42 -45 -48 -36 -54 -70 -70 -99 -7 -123 -136 -0 -0 -0 -0 -0 -0 -36 -6 -0 -0 -0 -0 -0 -0 -0 -0 -0 -0 -0 -0 -0 -0 -0 -0 -42 -46 -35
-0 -0 -0 -0 -0 -0 -0 -0 -0 -0 -0 -19 -29 -32 -47 -69 -61 -69 -70 -131 -43 -0 -0 -0 -0 -0 -0 -0 -52 -45 -0 -0 -0 -0 -0 -0 -0 -0 -0 -0 -0 -0 -51 -38 -0 -49 -55 -44 -12
-0 -0 -0 -0 -0 -0 -0 -0 -0 -0 -0 -0 -17 -14 -19 -34 -29 -55 -102 -104 -74 -0 -0 -0 -0 -0 -0 -0 -56 -46 -0 -0 -0 -28 -32 -43 -0 -0 -0 -0 -0 -0 -48 -47 -41 -37 -42 -32 -37
-0 -0 -0 -0 -0 -0 -0 -0 -0 -0 -0 -0 -0 -0 -17 -39 -41 -37 -57 -65 -101 -0 -0 -0 -0 -0 -0 -0 -55 -39 -53 -49 -45 -38 -45 -67 -35 -31 -0 -0 -0 -0 -34 -40 -44 -28 -26 -25 -0
Wind_Speed
20 17 19 17 15 14 9 11 8 12 11 11 13 15 16 16 17 16 20 13 6 16 10 15 16 15 15 15 15 15 15 16 16 16 16 16 16 16 17 17 17 16 16 13 12 12 11 11 10
18 19 21 17 13 11 11 10 16 13 18 19 16 16 16 18 18 19 16 16 15 17 19 17 16 16 16 16 16 16 16 16 16 16 17 17 17 17 17 17 17 17 16 15 14 13 11 11 11
18 20 19 17 12 10 9 14 20 22 18 14 15 15 17 16 18 19 17 17 17 17 16 16 16 16 16 16 16 16 17 17 17 17 18 18 18 18 18 18 18 17 17 16 16 14 13 13 12
19 23 23 12 8 10 11 7 11 19 17 18 18 19 19 18 16 17 17 17 16 16 17 17 17 17 17 17 17 18 18 18 19 19 20 20 20 20 20 19 19 19 18 17 16 15 14 14 13
20 22 13 12 11 17 17 15 15 16 18 17 17 16 17 17 17 17 16 16 17 17 17 17 18 18 17 18 18 19 20 20 21 21 21 21 23 21 21 21 21 21 20 19 18 17 16 16 15
20 20 18 16 5 17 14 9 15 16 18 19 19 19 19 18 17 17 16 17 17 18 18 19 19 19 19 19 20 21 21 22 22 22 23 23 24 22 24 23 23 22 22 22 21 20 19 19 18
18 21 18 22 23 10 15 21 16 17 18 18 18 18 17 16 17 17 16 17 16 17 18 19 20 20 21 22 23 24 24 24 24 24 24 22 23 24 26 25 25 25 25 24 24 24 22 21 20
19 21 19 19 20 18 20 19 18 17 17 17 16 16 15 16 18 18 17 17 17 17 18 19 20 22 22 23 25 26 26 27 27 26 25 25 24 25 26 26 26 27 26 27 27 26 26 24 23
21 21 17 19 20 19 17 16 17 16 16 16 16 15 16 18 17 16 15 16 17 18 20 19 20 22 23 23 27 27 27 27 27 27 25 25 25 26 27 27 27 26 26 27 27 27 27 26 26
21 23 18 18 17 16 15 15 15 15 15 16 17 17 16 15 15 14 14 15 15 16 19 20 21 23 25 26 27 28 28 29 28 26 25 26 27 27 27 28 28 29 28 28 28 27 27 26 25
21 23 23 20 18 19 18 18 14 14 14 12 13 14 14 13 12 12 13 14 15 16 19 22 22 24 26 28 30 30 29 29 27 27 27 27 27 28 29 30 31 31 30 29 29 28 27 27 25
20 21 18 18 19 18 18 19 16 13 11 13 14 15 12 9 10 11 12 13 14 17 19 21 24 26 28 30 31 31 30 28 26 25 27 29 30 31 32 33 32 32 31 31 30 29 28 27 27
20 20 18 18 19 19 18 18 15 16 12 10 10 10 11 9 9 12 13 13 13 15 18 21 25 29 31 31 31 30 28 24 22 24 26 28 31 31 33 34 32 32 31 31 31 30 30 29 28
19 18 17 19 19 17 18 18 16 13 13 11 10 10 9 7 9 10 11 12 13 15 19 22 27 30 30 30 31 30 26 22 23 25 27 29 30 31 32 32 32 31 30 30 30 30 30 29 29
17 17 17 16 16 17 16 22 19 14 14 12 10 8 6 5 8 9 9 12 14 17 20 23 27 29 31 30 30 28 26 24 24 26 27 29 29 29 29 30 31 31 30 30 30 29 29 30 30
15 15 17 17 12 12 15 21 16 12 11 10 10 8 6 4 7 9 11 13 15 17 21 25 27 31 32 31 29 28 25 25 24 25 27 28 28 28 29 30 31 30 30 29 29 28 28 28 30
17 15 18 18 17 16 16 19 11 12 12 10 9 10 8 6 12 14 14 14 14 16 21 26 28 31 31 31 29 28 26 27 23 24 26 27 27 27 28 28 29 30 30 30 28 27 26 28 29
15 16 18 17 18 17 20 20 13 12 12 12 11 9 9 13 13 15 13 13 13 15 22 25 28 30 31 30 27 27 27 27 24 23 25 25 25 26 28 28 30 30 31 30 29 29 28 27 29
13 16 19 17 13 20 21 20 19 16 17 10 7 5 9 9 13 12 10 10 11 14 21 27 29 29 30 29 27 26 28 27 25 24 25 24 24 25 27 28 29 30 30 30 29 27 25 25 24
15 17 19 20 17 17 18 23 24 22 23 19 8 6 11 7 9 9 7 8 10 17 22 25 26 27 28 27 25 24 25 22 22 23 24 22 24 24 25 28 29 30 30 32 28 22 21 20 19
15 19 14 15 19 20 18 24 22 18 18 17 14 11 14 10 9 7 4 6 12 18 19 21 23 24 25 25 25 25 23 23 23 25 25 25 23 23 25 27 27 30 31 32 26 20 16 17 17
17 18 16 14 16 20 16 20 20 17 18 15 13 11 13 11 8 7 4 4 10 13 16 17 20 22 23 23 22 22 23 25 22 22 21 23 22 24 24 24 28 31 30 29 27 19 13 14 14
18 17 14 14 19 19 22 19 18 17 16 13 11 9 12 9 8 6 4 3 10 10 10 15 18 19 18 18 17 19 21 22 23 22 23 23 22 24 21 22 27 26 28 26 26 24 17 10 7
19 21 18 18 19 21 21 19 19 18 17 16 10 5 5 9 7 7 5 11 9 11 13 14 15 16 15 16 16 17 19 22 26 24 22 20 19 20 19 23 21 16 17 18 11 13 16 18 9
15 15 15 13 20 18 21 20 18 17 17 17 14 10 7 11 8 9 6 6 8 10 12 13 13 14 14 16 16 18 19 19 19 17 19 14 17 18 12 15 15 16 4 12 8 12 13 7 14
18 17 16 19 19 17 19 18 17 15 17 19 18 14 10 9 10 8 6 6 9 10 11 12 13 13 13 15 16 20 20 16 13 12 13 12 12 12 7 6 10 10 10 14 4 11 13 9 24
17 20 16 18 18 18 16 16 16 21 15 18 20 17 14 11 8 6 9 7 8 9 11 12 13 13 14 14 17 20 20 17 13 10 12 10 9 10 10 7 10 10 12 14 4 14 6 9 9
21 18 17 19 19 20 17 17 17 21 20 18 18 18 15 11 10 8 7 10 10 11 11 12 13 14 11 13 16 18 17 17 17 16 13 12 11 12 9 8 10 15 16 14 17 24 8 5 6
23 20 20 18 18 18 18 18 17 18 20 21 20 19 15 11 8 7 9 9 11 12 11 12 12 13 10 12 14 16 16 16 16 15 12 14 13 11 9 8 8 8 13 18 19 15 11 11 7
23 21 19 19 19 20 19 20 19 17 19 20 20 20 17 16 15 12 11 10 11 12 12 11 11 12 9 11 12 12 12 13 12 11 7 10 12 10 6 10 9 8 8 10 11 9 9 8 9
Wind_Direction
85 40 359 356 350 354 271 315 307 360 323 11 34 47 59 355 10 18 94 214 282 55 356 38 30 17 8 3 1 359 0 2 5 7 7 5 4 5 4 359 355 353 356 1 2 358 1 2 6
75 26 16 353 336 329 292 258 33 22 58 47 31 22 8 12 53 69 65 63 46 58 59 44 29 18 14 8 4 1 359 2 0 0 359 358 358 357 356 355 354 351 348 351 353 350 352 354 354
67 52 354 346 335 314 290 37 65 67 50 4 11 352 352 360 56 73 66 61 49 36 26 20 15 7 3 1 358 357 356 354 353 351 351 351 351 349 348 349 349 349 348 344 341 339 336 338 340
75 26 20 347 322 268 257 280 226 44 23 15 45 13 31 36 61 63 65 55 39 18 14 11 7 3 356 352 351 351 349 349 347 344 341 339 337 337 338 338 339 339 340 340 338 335 331 332 332
50 36 303 311 297 225 220 231 173 23 32 22 14 27 23 29 65 63 54 46 38 24 9 2 359 352 344 342 342 341 340 340 339 337 334 335 331 332 331 330 329 328 328 328 328 327 326 323 324
34 52 334 5 248 216 227 319 23 26 24 34 37 48 41 63 70 63 57 44 37 34 23 6 357 351 344 339 337 336 335 336 336 333 331 329 330 329 324 325 324 324 320 319 317 316 315 315 314
51 27 10 69 88 252 137 103 40 29 24 13 64 50 53 59 75 67 58 48 36 22 15 8 359 350 345 340 337 334 335 335 335 336 338 340 337 333 328 323 319 318 317 315 311 308 307 307 308
57 53 52 59 88 59 85 80 59 45 30 41 339 43 40 70 78 72 61 49 33 13 1 358 356 347 340 338 337 334 333 330 330 332 333 335 336 335 334 330 323 316 313 311 309 306 302 302 302
99 25 40 58 69 83 83 65 56 61 54 36 27 40 65 83 79 66 56 42 30 23 13 5 360 357 353 350 342 339 340 340 335 332 335 336 335 333 329 326 326 324 320 316 309 306 303 300 299
78 42 32 94 90 74 67 39 53 40 49 45 46 53 72 72 69 63 53 40 33 25 15 10 359 352 347 343 341 341 336 333 333 337 338 337 334 332 330 327 324 320 319 316 312 309 306 303 300
47 65 82 106 97 78 60 58 40 48 31 55 66 81 98 87 65 54 43 39 32 25 10 1 1 355 349 342 337 335 334 333 335 334 333 332 332 330 328 325 321 318 315 313 311 308 305 300 300
41 64 95 83 84 61 58 62 57 39 37 68 71 89 92 69 49 52 53 40 23 17 10 4 360 353 347 343 339 335 334 336 339 338 335 332 330 328 326 324 321 318 314 309 307 307 306 304 297
42 47 68 49 47 40 54 50 59 50 42 58 54 65 82 59 44 45 43 42 34 22 19 7 355 348 344 343 342 341 341 346 349 346 342 337 332 330 327 325 323 319 316 311 305 303 302 298 298
52 49 50 35 38 51 47 47 39 60 73 64 57 75 81 62 73 55 27 32 33 32 20 9 358 354 352 349 346 346 347 351 348 345 341 340 336 333 331 330 328 325 321 316 310 304 300 297 297
54 37 24 30 47 39 54 14 28 60 55 48 66 71 45 50 69 72 55 40 37 32 24 10 1 359 354 350 346 347 349 351 348 346 345 343 342 340 338 335 334 330 326 321 315 308 302 296 294
29 25 13 20 49 45 25 8 38 64 48 36 40 50 66 28 86 82 81 57 42 30 16 7 0 358 356 352 352 350 350 348 346 347 346 345 345 345 342 339 337 336 332 327 323 315 308 303 295
13 22 15 18 28 30 16 14 46 44 35 25 35 54 45 58 130 138 108 78 57 33 19 10 4 358 356 355 354 354 356 355 354 354 351 350 349 348 347 344 341 340 336 332 326 320 315 308 302
39 15 12 10 17 26 15 15 46 32 22 23 36 79 82 136 146 135 109 74 34 20 7 7 5 3 1 360 0 1 360 358 359 357 357 355 355 353 351 349 346 345 341 335 332 324 318 311 306
37 21 2 15 45 23 19 16 10 14 5 22 69 38 76 110 133 127 95 60 36 23 9 2 1 4 2 1 1 360 356 357 0 2 358 359 358 358 356 351 348 346 343 342 339 336 331 324 318
33 14 12 21 33 29 29 17 14 19 30 58 65 49 23 86 123 121 97 48 29 11 6 6 5 4 5 7 6 4 2 4 2 0 358 2 359 359 356 353 350 348 345 339 341 346 347 342 335
39 26 33 25 31 40 32 15 21 39 43 40 50 61 37 70 108 117 100 29 4 358 6 7 8 10 11 9 5 4 4 1 2 355 354 358 0 1 358 357 357 345 343 345 351 355 360 358 352
20 27 39 59 33 18 30 17 27 34 29 50 74 55 39 39 74 107 85 33 3 4 8 11 11 9 10 8 10 11 9 4 5 2 5 2 6 2 2 3 352 331 344 2 358 14 18 9 360
23 23 60 53 34 33 23 24 27 33 36 47 39 60 39 51 81 93 57 44 7 10 13 15 11 11 15 17 20 18 12 11 8 6 5 6 10 7 8 7 316 313 359 16 11 12 23 37 53
36 37 42 33 27 19 19 18 16 21 24 30 49 72 59 45 79 38 33 12 16 15 16 17 15 13 19 20 20 17 11 7 360 7 11 16 20 18 20 325 291 272 39 295 64 60 46 27 175
37 25 18 19 11 15 17 16 21 25 28 28 29 38 52 27 33 21 58 21 14 21 20 19 17 14 20 18 18 13 11 10 13 22 22 31 28 30 49 261 268 272 140 274 89 74 81 248 271
23 21 16 3 7 17 20 21 23 28 18 16 23 24 27 26 22 37 39 27 19 20 21 18 16 16 19 19 19 15 13 21 29 35 34 40 42 46 98 190 232 243 250 274 214 91 92 130 350
16 7 21 15 22 18 26 27 31 17 20 18 13 16 15 15 31 25 16 15 20 19 18 18 17 18 22 25 18 15 17 26 39 49 39 51 57 65 78 181 224 243 261 278 192 85 150 138 282
17 17 9 13 8 7 20 20 14 11 12 12 10 6 4 8 5 11 19 17 14 10 16 19 19 17 28 25 25 23 29 34 41 48 53 57 72 79 100 150 225 272 290 288 308 357 263 176 180
6 8 10 23 16 11 9 11 17 14 13 9 7 5 7 8 6 7 7 5 5 5 11 14 15 14 27 24 26 26 34 39 43 52 69 69 80 89 110 137 154 196 269 305 314 302 284 296 207
24 23 19 9 11 14 14 9 9 13 10 9 8 6 4 1 2 8 3 2 357 357 2 7 15 15 24 24 27 31 43 43 46 57 106 84 80 93 131 144 153 179 197 254 272 242 251 221 225